Terug naar catalogus

ONEWEB-0608

ActiefCommunicatiePO
NORAD 54672·PAYLOAD·🇬🇧 United Kingdom

Gelanceerd Dec 8, 2022 vanaf Cape Canaveral Space Force Station

Loading…

Volgende Passages (komende 24 uur)

TLE

VersSource: CelesTrak SupGP

Epoch: Sep 14, 2026, 13:17 UTC

1 54672C 22166AG  26257.55398565 -.00001273  00000+0 -30863-2 0  2572
2 54672  87.9283 226.1847 0002389  94.6509  17.8361 13.21828017    18

Volg ONEWEB-0608 in realtime met AllMySat

Download on the App Store